| time (UTC) | temp F | wind direction | speed MPH | gust MPH | rain 1hr in | rain 24hr in | rain mn in | humidity % | barometer mb |
| 20260902225844 | 64 | 177 | 3.0 | 7.0 | 0.00 | 0.00 | 0.00 | 83 | 1018.7 |
| 20260902224846 | 64 | 158 | 4.0 | 6.0 | 0.00 | 0.00 | 0.00 | 83 | 1018.7 |
| 20260902223846 | 64 | 155 | 5.0 | 9.0 | 0.00 | 0.00 | 0.00 | 83 | 1018.6 |
| 20260902222845 | 64 | 166 | 4.0 | 6.0 | 0.00 | 0.00 | 0.00 | 83 | 1018.8 |
| 20260902221845 | 64 | 163 | 4.0 | 6.0 | 0.00 | 0.00 | 0.00 | 83 | 1018.8 |
| 20260902214845 | 64 | 156 | 4.0 | 6.0 | 0.00 | 0.00 | 0.00 | 83 | 1018.7 |
| 20260902213845 | 64 | 155 | 4.0 | 7.0 | 0.00 | 0.00 | 0.00 | 82 | 1018.7 |
| 20260902210846 | 64 | 161 | 4.0 | 6.0 | 0.00 | 0.00 | 0.00 | 81 | 1019.1 |
| 20260902205846 | 65 | 160 | 4.0 | 7.0 | 0.00 | 0.00 | 0.00 | 81 | 1019.1 |
| 20260902204846 | 65 | 162 | 4.0 | 7.0 | 0.00 | 0.00 | 0.00 | 81 | 1019.1 |
| 20260902200845 | 65 | 153 | 4.0 | 9.0 | 0.00 | 0.00 | 0.00 | 81 | 1019.2 |
| 20260902194845 | 65 | 157 | 3.0 | 5.0 | 0.00 | 0.00 | 0.00 | 82 | 1019.3 |
| 20260902193845 | 65 | 156 | 3.0 | 5.0 | 0.00 | 0.00 | 0.00 | 81 | 1019.3 |
| 20260902191846 | 66 | 156 | 3.0 | 4.0 | 0.00 | 0.00 | 0.00 | 80 | 1019.3 |
| 20260902185846 | 66 | 157 | 3.0 | 6.0 | 0.00 | 0.00 | 0.00 | 80 | 1019.2 |
| 20260902184845 | 66 | 164 | 3.0 | 6.0 | 0.00 | 0.00 | 0.00 | 80 | 1019.2 |
| 20260902183846 | 66 | 168 | 3.0 | 6.0 | 0.00 | 0.00 | 0.00 | 79 | 1019.2 |
| 20260902182846 | 67 | 164 | 3.0 | 6.0 | 0.00 | 0.00 | 0.00 | 79 | 1019.2 |
| 20260902181846 | 67 | 173 | 3.0 | 6.0 | 0.00 | 0.00 | 0.00 | 78 | 1019.2 |
| 20260902180846 | 67 | 174 | 4.0 | 8.0 | 0.00 | 0.00 | 0.00 | 77 | 1019.2 |
| 20260902175846 | 67 | 175 | 5.0 | 8.0 | 0.00 | 0.00 | 0.00 | 78 | 1019.2 |
| 20260902174846 | 67 | 174 | 5.0 | 8.0 | 0.00 | 0.00 | 0.00 | 78 | 1019.2 |
| 20260902173846 | 68 | 174 | 5.0 | 10.0 | 0.00 | 0.00 | 0.00 | 77 | 1019.1 |
| 20260902172846 | 68 | 171 | 6.0 | 9.0 | 0.00 | 0.00 | 0.00 | 77 | 1019.2 |
| 20260902171845 | 68 | 174 | 5.0 | 9.0 | 0.00 | 0.00 | 0.00 | 76 | 1019.2 |
| 20260902170845 | 68 | 176 | 5.0 | 9.0 | 0.00 | 0.00 | 0.00 | 77 | 1019.2 |
| 20260902165846 | 68 | 174 | 5.0 | 10.0 | 0.00 | 0.00 | 0.00 | 78 | 1019.2 |
| 20260902164846 | 68 | 174 | 4.0 | 7.0 | 0.00 | 0.00 | 0.00 | 78 | 1019.2 |
| 20260902161846 | 68 | 183 | 6.0 | 10.0 | 0.00 | 0.00 | 0.00 | 77 | 1019.7 |
| 20260902160847 | 68 | 193 | 4.0 | 8.0 | 0.00 | 0.00 | 0.00 | 79 | 1019.7 |
| 20260902155846 | 68 | 190 | 5.0 | 10.0 | 0.00 | 0.00 | 0.00 | 77 | 1019.7 |
| 20260902153846 | 69 | 202 | 6.0 | 13.0 | 0.00 | 0.00 | 0.00 | 76 | 1019.7 |
| 20260902152847 | 69 | 205 | 4.0 | 12.0 | 0.00 | 0.00 | 0.00 | 74 | 1019.7 |
| 20260902151847 | 69 | 209 | 5.0 | 9.0 | 0.00 | 0.00 | 0.00 | 73 | 1019.7 |
| 20260902150845 | 69 | 197 | 6.0 | 15.0 | 0.00 | 0.00 | 0.00 | 72 | 1019.7 |
| 20260902145847 | 70 | 212 | 6.0 | 12.0 | 0.00 | 0.00 | 0.00 | 70 | 1019.7 |
| 20260902144846 | 71 | 199 | 5.0 | 12.0 | 0.00 | 0.00 | 0.00 | 70 | 1019.7 |
| 20260902143846 | 71 | 196 | 6.0 | 14.0 | 0.00 | 0.00 | 0.00 | 68 | 1019.7 |
| 20260902141846 | 71 | 189 | 6.0 | 11.0 | 0.00 | 0.00 | 0.00 | 70 | 1019.7 |
| 20260902140847 | 70 | 185 | 7.0 | 14.0 | 0.00 | 0.00 | 0.00 | 70 | 1019.7 |
| 20260902135847 | 71 | 176 | 7.0 | 13.0 | 0.00 | 0.00 | 0.00 | 70 | 1019.7 |
| 20260902134846 | 71 | 185 | 6.0 | 11.0 | 0.00 | 0.00 | 0.00 | 69 | 1019.7 |
| 20260902133847 | 71 | 182 | 7.0 | 11.0 | 0.00 | 0.00 | 0.00 | 68 | 1019.7 |
| 20260902132847 | 70 | 189 | 6.0 | 12.0 | 0.00 | 0.00 | 0.00 | 72 | 1019.7 |
| 20260902130846 | 70 | 185 | 6.0 | 12.0 | 0.00 | 0.00 | 0.00 | 72 | 1019.7 |
| 20260902125848 | 70 | 198 | 5.0 | 11.0 | 0.00 | 0.00 | 0.00 | 72 | 1019.7 |
| 20260902124846 | 70 | 175 | 8.0 | 13.0 | 0.00 | 0.00 | 0.00 | 73 | 1019.7 |
| 20260902123846 | 71 | 183 | 7.0 | 12.0 | 0.00 | 0.00 | 0.00 | 70 | 1019.6 |
| 20260902122846 | 71 | 188 | 6.0 | 12.0 | 0.00 | 0.00 | 0.00 | 73 | 1019.7 |
| 20260902121848 | 71 | 178 | 5.0 | 10.0 | 0.00 | 0.00 | 0.00 | 73 | 1019.7 |
| 20260902120848 | 70 | 179 | 5.0 | 11.0 | 0.00 | 0.00 | 0.00 | 74 | 1019.8 |
| 20260902115846 | 70 | 187 | 5.0 | 12.0 | 0.00 | 0.00 | 0.00 | 77 | 1020.1 |
| 20260902112847 | 69 | 184 | 8.0 | 13.0 | 0.00 | 0.00 | 0.00 | 76 | 1020.2 |
| 20260902111847 | 69 | 183 | 8.0 | 12.0 | 0.00 | 0.00 | 0.00 | 77 | 1020.2 |
| 20260902105847 | 69 | 187 | 7.0 | 11.0 | 0.00 | 0.00 | 0.00 | 77 | 1020.2 |
| 20260902104846 | 69 | 195 | 6.0 | 10.0 | 0.00 | 0.00 | 0.00 | 80 | 1020.2 |
| 20260902103846 | 69 | 191 | 7.0 | 19.0 | 0.00 | 0.00 | 0.00 | 80 | 1020.2 |
| 20260902101847 | 69 | 197 | 6.0 | 13.0 | 0.00 | 0.00 | 0.00 | 82 | 1020.2 |
| 20260902100846 | 68 | 183 | 8.0 | 13.0 | 0.00 | 0.00 | 0.00 | 83 | 1020.2 |
| 20260902095848 | 68 | 189 | 7.0 | 12.0 | 0.00 | 0.00 | 0.00 | 84 | 1020.2 |
| 20260902094847 | 67 | 196 | 6.0 | 10.0 | 0.00 | 0.00 | 0.00 | 85 | 1020.2 |
| 20260902093847 | 67 | 177 | 7.0 | 14.0 | 0.00 | 0.00 | 0.00 | 87 | 1020.2 |
| 20260902092848 | 66 | 185 | 6.0 | 11.0 | 0.00 | 0.00 | 0.00 | 87 | 1020.2 |
| 20260902090847 | 66 | 177 | 7.0 | 14.0 | 0.00 | 0.00 | 0.00 | 87 | 1020.2 |
| 20260902084847 | 65 | 187 | 5.0 | 10.0 | 0.00 | 0.00 | 0.00 | 88 | 1020.1 |
| 20260902083848 | 65 | 197 | 4.0 | 8.0 | 0.00 | 0.00 | 0.00 | 89 | 1020.2 |
| 20260902080849 | 63 | 183 | 6.0 | 9.0 | 0.00 | 0.00 | 0.00 | 90 | 1019.8 |
| 20260902075847 | 63 | 169 | 6.0 | 10.0 | 0.00 | 0.00 | 0.00 | 89 | 1019.7 |
| 20260902073847 | 62 | 178 | 6.0 | 11.0 | 0.00 | 0.00 | 0.00 | 91 | 1019.7 |
| 20260902072847 | 62 | 187 | 6.0 | 11.0 | 0.00 | 0.00 | 0.00 | 91 | 1019.7 |
| 20260902071847 | 61 | 185 | 6.0 | 10.0 | 0.00 | 0.00 | 0.00 | 91 | 1019.7 |
| 20260902070847 | 60 | 183 | 6.0 | 10.0 | 0.00 | 0.00 | 0.00 | 91 | 1019.7 |
| 20260902065848 | 60 | 177 | 7.0 | 10.0 | 0.00 | 0.00 | 0.00 | 92 | 1019.7 |
| 20260902064848 | 60 | 183 | 6.0 | 11.0 | 0.00 | 0.00 | 0.00 | 93 | 1019.7 |
| 20260902063847 | 59 | 177 | 5.0 | 8.0 | 0.00 | 0.00 | 0.00 | 94 | 1019.7 |
| 20260902062847 | 58 | 174 | 5.0 | 8.0 | 0.00 | 0.00 | 0.00 | 94 | 1019.7 |
| 20260902061847 | 58 | 171 | 4.0 | 7.0 | 0.00 | 0.00 | 0.00 | 95 | 1019.7 |
| 20260902055847 | 56 | 174 | 4.0 | 7.0 | 0.00 | 0.00 | 0.00 | 96 | 1019.4 |
| 20260902054847 | 56 | 173 | 4.0 | 6.0 | 0.00 | 0.00 | 0.00 | 96 | 1019.4 |
| 20260902053848 | 56 | 177 | 3.0 | 5.0 | 0.00 | 0.00 | 0.00 | 96 | 1019.4 |
| 20260902052847 | 56 | 176 | 3.0 | 5.0 | 0.00 | 0.00 | 0.00 | 96 | 1019.2 |
| 20260902050847 | 56 | 169 | 4.0 | 6.0 | 0.00 | 0.00 | 0.00 | 96 | 1019.3 |
| 20260902045847 | 56 | 169 | 3.0 | 6.0 | 0.00 | 0.00 | 0.00 | 96 | 1019.3 |
| 20260902044848 | 55 | 166 | 3.0 | 5.0 | 0.00 | 0.00 | 0.00 | 96 | 1019.3 |
| 20260902043848 | 55 | 167 | 2.0 | 3.0 | 0.00 | 0.00 | 0.00 | 96 | 1019.2 |
| 20260902042849 | 55 | 167 | 2.0 | 3.0 | 0.00 | 0.00 | 0.00 | 96 | 1019.2 |
| 20260902041848 | 55 | 167 | 2.0 | 4.0 | 0.00 | 0.00 | 0.00 | 96 | 1019.2 |
| 20260902040847 | 55 | 166 | 1.0 | 3.0 | 0.00 | 0.00 | 0.00 | 96 | 1019.3 |
| 20260902035847 | 55 | 166 | 1.0 | 2.0 | 0.00 | 0.00 | 0.00 | 96 | 1019.3 |
| 20260902034848 | 56 | 167 | 1.0 | 2.0 | 0.00 | 0.00 | 0.00 | 96 | 1019.3 |
| 20260902033847 | 56 | 167 | 2.0 | 3.0 | 0.00 | 0.00 | 0.00 | 96 | 1019.4 |
| 20260902032847 | 56 | 167 | 2.0 | 3.0 | 0.00 | 0.00 | 0.00 | 96 | 1019.6 |
| 20260902031847 | 56 | 166 | 2.0 | 3.0 | 0.00 | 0.00 | 0.00 | 96 | 1019.6 |
| 20260902030847 | 56 | 166 | 1.0 | 3.0 | 0.00 | 0.00 | 0.00 | 96 | 1019.6 |
| 20260902025848 | 56 | 167 | 3.0 | 5.0 | 0.00 | 0.00 | 0.00 | 97 | 1019.6 |
| 20260902024848 | 55 | 194 | 2.0 | 4.0 | 0.00 | 0.00 | 0.00 | 97 | 1019.6 |
| 20260902022848 | 55 | 195 | 0.0 | 2.0 | 0.00 | 0.00 | 0.00 | 97 | 1019.7 |
| 20260902021847 | 55 | 196 | 1.0 | 2.0 | 0.00 | 0.00 | 0.00 | 97 | 1019.7 |
| 20260902020848 | 55 | 196 | 1.0 | 2.0 | 0.00 | 0.00 | 0.00 | 96 | 1019.7 |
| 20260902015848 | 55 | 196 | 1.0 | 2.0 | 0.00 | 0.00 | 0.00 | 96 | 1019.7 |
| 20260902014848 | 55 | 196 | 0.0 | 2.0 | 0.00 | 0.00 | 0.00 | 96 | 1019.7 |
| 20260902013848 | 55 | 196 | 0.0 | 2.0 | 0.00 | 0.00 | 0.00 | 96 | 1019.7 |
| 20260902012848 | 55 | 196 | 0.0 | 1.0 | 0.00 | 0.00 | 0.00 | 96 | 1019.7 |
| 20260902011848 | 55 | 196 | 0.0 | 1.0 | 0.00 | 0.00 | 0.00 | 96 | 1019.7 |
| 20260902010848 | 55 | 196 | 0.0 | 2.0 | 0.00 | 0.00 | 0.00 | 96 | 1019.8 |
| 20260902005848 | 55 | 196 | 1.0 | 2.0 | 0.00 | 0.00 | 0.00 | 96 | 1019.7 |
| 20260902004848 | 56 | 0 | 0.0 | 0.0 | 0.00 | 0.00 | 0.00 | 95 | 1019.7 |
| 20260902003848 | 56 | 0 | 0.0 | 0.0 | 0.00 | 0.00 | 0.00 | 95 | 1019.7 |
| 20260902002849 | 56 | 0 | 0.0 | 0.0 | 0.00 | 0.00 | 0.00 | 95 | 1019.7 |
| 20260902001848 | 56 | 194 | 0.0 | 1.0 | 0.00 | 0.00 | 0.00 | 95 | 1019.7 |
| 20260902000848 | 56 | 195 | 0.0 | 1.0 | 0.00 | 0.00 | 0.00 | 95 | 1019.7 |
| 20260901235849 | 56 | 194 | 1.0 | 2.0 | 0.00 | 0.00 | 0.00 | 95 | 1019.8 |
| 20260901234849 | 57 | 194 | 1.0 | 2.0 | 0.00 | 0.00 | 0.00 | 94 | 1019.8 |
| 20260901233849 | 57 | 194 | 1.0 | 2.0 | 0.00 | 0.00 | 0.00 | 94 | 1020.1 |
| 20260901232849 | 57 | 205 | 1.0 | 3.0 | 0.00 | 0.00 | 0.00 | 94 | 1020.1 |
| 20260901231848 | 57 | 262 | 2.0 | 3.0 | 0.00 | 0.00 | 0.00 | 94 | 1020.1 |
| 20260901230848 | 57 | 264 | 0.0 | 3.0 | 0.00 | 0.00 | 0.00 | 95 | 1020.1 |